Flag for Bosnia-Herzegovina Weather past 2 weeks in Tuzla, Bosnia-Herzegovina

Now
64 °F

Drizzle. Fog.


Feels Like: 64 °F
Forecast: 63 / 81 °F
Wind: 7 mph from Northwest

Location: Tuzla

Current Time: Jul 31, 2014 at 10:20:40 AM

Latest Report: Jul 31, 2014 at 10:00 AM


Visibility: 2 mi

Pressure: 29.80 "Hg

Humidity: 100%

Dew point: 64 °F

Location of TuzlaLocation

Historic Weather in Tuzla — Graph

°F

Tuzla temperature yesterday

Maximum temperature yesterday: 81 °F (at 4:30 PM)
Minimum temperature yesterday: 59 °F (at 6:00 AM)
Average temperature yesterday: 73 °F

Past Weeks' High & Low Weather Summary

 TemperatureHumidityPressure
High90 °F (Jul 20, 4:00 PM)100% (Jul 17, 6:00 AM)30.07 "Hg (Jul 17, 6:00 AM)
Low55 °F (Jul 25, 6:00 AM)35% (Jul 20, 3:00 PM)29.68 "Hg (Jul 30, 2:30 PM)
Average74 °F77%29.91 "Hg
* Reported Jul 16 9:00 AM — Jul 31 9:00 AM, Tuzla, Weather by CustomWeather, © 2014

Note: Actual official high and low records may vary slightly from our data, if they occured in-between our weather recording intervals... More about our weather records

Advertising

Tuzla weather history for previous 24 hours

 ConditionsComfort  
Time TempWeatherWind HumidityBarometerVisibility
9:00 AM
Jul 31
63 °FFog.6 mph100%29.80 "Hg3 mi
8:30 AM63 °FFog.5 mph100%29.80 "Hg2 mi
8:00 AM63 °FFog.2 mph100%29.77 "Hg1 mi
7:30 AM61 °FFog.1 mph100%29.77 "Hg1 mi
7:00 AM61 °FFog.1 mph100%29.77 "Hg1 mi
6:30 AM61 °FFog.2 mph100%29.77 "Hg1 mi
6:00 AM61 °FFog.2 mph100%29.77 "Hg1 mi
5:30 PM
Jul 30
75 °FPassing clouds.3 mph83%29.68 "HgN/A
5:00 PM77 °FPassing clouds.5 mph74%29.71 "HgN/A
4:30 PM81 °FPassing clouds.9 mph66%29.68 "HgN/A
4:00 PM79 °FPassing clouds.9 mph70%29.68 "HgN/A
3:30 PM77 °FPassing clouds.9 mph74%29.71 "HgN/A
3:00 PM77 °FPassing clouds.8 mph74%29.71 "HgN/A
2:30 PM77 °FPassing clouds.6 mph69%29.68 "HgN/A
2:00 PM77 °FPassing clouds.8 mph69%29.74 "HgN/A
1:30 PM77 °FPassing clouds.3 mph74%29.74 "HgN/A
1:00 PM75 °FPassing clouds.12 mph74%29.74 "HgN/A
12:30 PM77 °FLight rain. Clear.8 mph74%29.74 "HgN/A
12:00 PM75 °FLight rain. Clear.7 mph83%29.74 "HgN/A
11:30 AM77 °FSunny.9 mph74%29.74 "Hg10 mi
11:00 AM77 °FSunny.9 mph74%29.74 "Hg10 mi
10:30 AM77 °FSunny.7 mph74%29.74 "Hg10 mi
10:00 AM77 °FSunny.10 mph74%29.74 "Hg10 mi
Weather by CustomWeather, © 2014

See weather overviewHow to use our weather pages